Regional Weather Roundup
Issued by NWS Charleston, SC

Current Version | Previous Version | Graphics & Text | Print | Product List | Glossary On
Versions: 1 2 3 4 5 6 7 8 9 10 11 12 13 14 15 16 17 18 19 20 21 22 23 24 25 26 27 28 29 30 31 32 33 34 35 36 37 38 39 40 41 42 43 44 45 46 47 48 49 50
000
ASUS42 KCHS 170010
RWRCHS

REGIONAL WEATHER ROUNDUP
NATIONAL WEATHER SERVICE CHARLESTON SC
800 PM EDT TUE SEP 16 2014

NOTE: "FAIR" INDICATES FEW OR NO CLOUDS BELOW 12,000 FEET WITH NO
SIGNIFICANT WEATHER AND/OR OBSTRUCTIONS TO VISIBILITY.

NOT ALL STATIONS ARE QUALITY CONTROLLED BY THE NATIONAL
WEATHER SERVICE. USE DATA WITH CAUTION...ESPECIALLY
DEWPOINT OBSERVATIONS.

SCZ027-030-031-034>040-042>050-170100-
...SOUTH CAROLINA...

CITY           SKY/WX    TMP DP  RH WIND       PRES   REMARKS
N CHARLESTON   LGT RAIN  74  72  93 N7        29.98R
6HR MIN TEMP:  73; 6HR MAX TEMP:  87; 6HR PCP:  1.51;

WATERFRONT PRK   N/A     77 N/A N/A N7          N/A
FORT JOHNSON   NOT AVBL
MOUNT PLEASANT RAIN      73  73 100 NW7       29.98R
JOHNS ISLAND   DRIZZLE   73  73 100 CALM      29.97S
PINOPOLIS        N/A     75  72  88 SW6       29.90R
MONCKS CORNER  LGT RAIN  73  73 100 SW8       29.98S
SUMMERVILLE    RAIN      72  72 100 CALM      30.00R
BEAUFORT MCAS  TSTM      75  72  90 NW5       29.96S
6HR MIN TEMP:  74; 6HR MAX TEMP:  91;

BEAUFORT ARPT  LGT RAIN  75  75 100 CALM      29.96R
HILTON HEAD IS CLOUDY    75  75 100 CALM      29.97R FOG
GEORGETOWN     NOT AVBL
WALTERBORO     CLOUDY    73 N/A N/A NW6       30.00R
ORANGEBURG     PTCLDY    77  71  82 SE14      29.96R
6HR MIN TEMP:  77; 6HR MAX TEMP:  89; 6HR PCP: TRACE;

BARNWELL       FAIR      81  73  78 CALM      29.94S
AIKEN          FAIR      79  73  83 CALM      29.98S
MANNING        FAIR      75 N/A N/A S3        29.97R
KINGSTREE      NOT AVBL
COLUMBIA       MOCLDY    83  69  62 E9        29.93R
6HR MIN TEMP:  83; 6HR MAX TEMP:  90;

SUMTER         LGT RAIN  79  70  73 SE5       29.93S
6HR MIN TEMP:  79; 6HR MAX TEMP:  87; 6HR PCP: TRACE;

FLORENCE       CLEAR     78  70  76 S3        29.95R
6HR MIN TEMP:  78; 6HR MAX TEMP:  87;

MYRTLE BEACH   MOCLDY    79  73  83 W3        29.96R
N MYRTLE BEACH PTCLDY    79  72  79 SE3       29.95R
6HR MIN TEMP:  79; 6HR MAX TEMP:  87;


$$

GAZ063-065-086>088-099>101-113>116-118-119-134-136>141-150-170100-
...GEORGIA...

CITY           SKY/WX    TMP DP  RH WIND       PRES   REMARKS
SAVANNAH ARPT  CLOUDY    77  70  79 NE12      29.97R
6HR MIN TEMP:  77; 6HR MAX TEMP:  90; 6HR PCP: TRACE;

HUNTER AAF     CLOUDY    74  71  92 NE6       29.93S
6HR MIN TEMP:  73; 6HR MAX TEMP:  88; 6HR PCP:  0.23;

FORT STEWART   CLOUDY    79  74  87 CALM      29.93S
6HR MIN TEMP:  79; 6HR MAX TEMP:  88; 6HR PCP: TRACE;

STATESBORO     NOT AVBL
SYLVANIA       CLOUDY    82  77  85 SE6       29.96R THUNDER
CLAXTON        FAIR      77  77 100 CALM      29.95S
THOMSON        PTCLDY    80  78  92 CALM      30.00R
AUGUSTA-BUSH   MOCLDY    77  72  84 CALM      29.93R
6HR MIN TEMP:  77; 6HR MAX TEMP:  90;

AUGUSTA-DANIEL MOCLDY    84  70  62 CALM      29.95R
SWAINSBORO     TSTM      77  77 100 W5        29.96S
VIDALIA        PTCLDY    75  72  88 S6        29.96S
ALMA           CLOUDY    71  70  96 S5        29.97F
6HR MIN TEMP:  71; 6HR MAX TEMP:  87; 6HR PCP:  0.18;

WAYCROSS       HVY RAIN  74  73  94 N6        29.97S
JESUP          DRIZZLE   81  77  89 CALM      29.95S
BRUNSWICK      CLOUDY    79  73  83 SW6       29.96S
SAINT SIMONS   CLOUDY    77  74  90 SW9       29.95F
6HR MIN TEMP:  77; 6HR MAX TEMP:  84; 6HR PCP: TRACE;


$$

SCZ027-028-034-036>038-045-046-048>050-GAZ119-141-170100-
...LAKE AND SUPPLEMENTAL COASTAL OBSERVATIONS...

STATION/POSITION TIME  TEMP    WIND        PRES    WAVE   SWELL
                       AIR SEA DIR/SP/G            HT/PER HT/PER/DIR
                 (UTC) (F)     (DEG/KT/KT) (MB)    (FT/S) (FT/S/D)
UPR LAKE MARION  NOT AVBL
WINYAH BAY       2300   76     240/  3     1014.0S
LAKE MURRAY      2300   84      CALM  /  1 1012.9R
ACE BASIN NERRS  2300   74        CALM     1015.0S
FORT PULASKI     0000   76      CALM  /  1 1014.4F
SAPELO ISLAND    2300   81     200/  7     1015.0S

$$

ANZ835-935-AMZ111-154-330-350-352-354-374-450-454-472-170100-
...C-MAN AND BUOY OBSERVATIONS...

STATION/POSITION TIME  TEMP    WIND        PRES    WAVE   SWELL
                       AIR SEA DIR/SP/G            HT/PER HT/PER/DIR
                 (UTC) (F)     (DEG/KT/KT) (MB)    (FT/S) (FT/S/D)
FOLLY BEACH CMAN 2300   76      CALM  /  2 1014.8F
BUOY 41004       0000   79 83   40/  4/  4 1014.2R   2/14   2/14
BUOY 41008       0000   81 85  220/  6/  8 1014.0F   1/ 8   2/ 80/ 8
5E ST. MARYS GA  0000      84                N/A     1/13
FRYING PAN BUOY  NOT AVBL
BUOY 41025       0000   76     290/  2/  4 1014.6R   2/ 8   2/ 40/ 8
CAPE LOOKOUT NC  2300   78     180/  6/  7 1014.2S
BUOY 41002       NOT AVBL
BUOY 41010       0000   81 85  240/  2/  4 1015.0F   3/ 7   2/ 50/ 7
BUOY 41012       NOT AVBL
ST AUGUSTINE FL  0000   78     270/  4/  6 1015.8R
CAPERS NEARSHORE 2300   74     240/  4/  4   N/A
FRIPP NEARSHORE  NOT AVBL


$$



USA.gov is the U.S. government's official web portal to all federal, state and local government web resources and services.